Location: Northam
(31.6525°S, 116.6655°E)
Time: 23:07:43
(UTC+08:00)

XW-2F - Visible Passes

Search period start: 03 August 2021 00:00
Search period end: 13 August 2021 00:00
Orbit: 498 x 518 km, 97.5° (Epoch: 03 August)

Date Brightness Start Highest point End Pass type
(mag) Time Alt. Az. Time Alt. Az. Time Alt. Az.
03 Aug ? 05:41:05 10° NNE 05:44:53 85° ESE 05:48:44 10° S visible
03 Aug ? 18:50:36 10° S 18:53:57 32° WSW 18:57:16 10° NW visible
04 Aug ? 05:24:09 10° NNE 05:27:48 47° ESE 05:31:29 10° S visible
04 Aug ? 18:33:12 10° S 18:36:54 56° WSW 18:40:30 10° NNW visible
05 Aug ? 05:07:29 10° NE 05:10:45 28° ESE 05:14:02 10° SSE visible
05 Aug ? 18:16:02 10° SSE 18:19:48 79° ENE 18:23:28 10° N visible
06 Aug ? 04:51:14 10° ENE 04:53:44 17° ESE 04:56:15 10° SSE visible
06 Aug ? 06:24:19 10° NNW 06:27:24 23° W 06:30:32 10° SW visible
07 Aug ? 04:36:17 10° ESE 04:36:46 10° ESE 04:37:14 10° ESE visible
07 Aug ? 06:06:38 10° N 06:10:13 40° W 06:13:50 10° SSW visible
07 Aug ? 19:16:53 10° SW 19:19:05 15° WSW 19:21:15 10° WNW visible
08 Aug ? 05:49:17 10° N 05:53:03 73° W 05:56:53 10° SSW visible
08 Aug ? 18:58:58 10° SSW 19:02:03 25° WSW 19:05:06 10° NW visible
09 Aug ? 05:32:11 10° NNE 05:35:56 62° ESE 05:39:43 10° S visible
09 Aug ? 18:41:26 10° S 18:45:00 42° WSW 18:48:29 10° NNW visible
10 Aug ? 05:15:23 10° NE 05:18:51 35° ESE 05:22:21 10° S visible
10 Aug ? 18:24:09 10° S 18:27:53 78° WSW 18:31:34 10° NNW visible
11 Aug ? 04:58:54 10° ENE 05:01:48 21° ESE 05:04:43 10° SSE visible
11 Aug ? 18:07:04 10° SSE 18:10:44 57° E 18:14:21 10° N visible
12 Aug ? 04:43:00 10° E 04:44:47 13° ESE 04:46:34 10° SE visible
12 Aug ? 06:14:57 10° NNW 06:18:21 31° W 06:21:45 10° SW visible
12 Aug ? 19:25:38 10° SW 19:27:04 12° WSW 19:28:30 10° W visible
